RH
24 24 23 23 23 23 25 26 26 25 25 25 25 24 23 22 21 20 18 17 15 13 13 13 13 13 13 13 14 14 15 20 27 28 25 24 23 22 22 22 21 20 19 21 22 24 22 17 12 9 9 9 9 9 9 9 9 9 10 11 10 9 8 8 8 10 13 17 23 37 50 49 30 23 25 16 22 38 46 47 25 8 12 12 11 10 8 9
24 24 23 23 23 22 23 24 25 25 25 25 25 25 24 23 22 21 19 17 16 14 13 13 12 13 13 13 14 14 14 16 24 28 25 23 23 22 22 22 22 20 19 20 22 24 24 21 16 11 9 9 9 9 8 9 9 9 10 11 11 10 10 9 8 8 10 13 15 17 27 33 22 12 13 13 17 27 42 44 19 7 11 8 7 6 6 10
24 24 23 23 23 22 22 22 23 25 25 25 25 24 24 24 22 21 20 18 17 15 13 12 12 12 12 13 13 14 14 14 20 27 26 22 22 22 22 22 22 20 19 20 21 23 25 24 20 15 10 9 9 9 9 9 9 9 9 10 11 11 11 10 9 9 10 12 13 15 16 19 24 23 17 17 20 21 26 28 13 7 12 11 9 9 11 15
24 23 23 23 23 23 22 22 22 23 24 25 25 25 24 24 23 22 21 19 18 16 14 13 12 12 12 12 13 14 14 13 16 24 26 22 21 21 21 22 22 20 19 19 20 22 25 25 23 19 14 10 9 9 9 8 8 9 9 9 10 10 11 12 11 10 11 12 12 17 17 12 16 24 25 22 24 22 19 17 10 9 15 14 10 11 13 15
23 23 23 23 23 23 23 22 22 22 23 24 24 25 24 24 24 23 22 20 19 17 14 13 12 12 12 12 12 13 14 14 14 21 26 22 19 20 20 21 21 21 18 18 19 20 24 25 24 23 18 13 10 9 9 8 8 9 9 9 9 9 10 12 13 13 12 12 12 13 14 12 10 15 24 31 34 28 18 13 10 8 12 16 12 9 13 15
21 23 23 23 23 23 23 22 22 22 22 23 24 24 24 24 24 23 23 21 19 18 15 13 13 12 12 12 11 12 14 14 13 17 24 22 18 18 19 20 21 20 18 17 18 19 22 23 25 25 22 17 12 9 9 9 8 8 9 9 8 9 10 11 14 15 14 13 13 11 10 11 11 10 15 25 34 30 20 11 6 7 7 13 16 12 13 15
18 21 23 23 23 23 23 23 22 22 22 23 23 24 24 24 24 23 23 22 20 19 17 14 13 12 12 12 11 11 13 14 13 15 22 23 19 18 18 19 20 19 18 17 17 18 20 21 25 26 24 21 15 11 9 9 8 8 9 8 8 9 10 11 13 15 17 16 14 12 10 9 10 12 14 18 22 22 19 12 6 7 7 9 16 18 17 14
15 17 20 23 23 23 23 23 23 23 23 23 23 23 24 24 23 24 23 22 22 20 18 15 13 13 12 12 12 11 12 14 14 13 19 23 20 17 18 18 19 19 18 18 17 18 19 20 24 26 26 25 20 14 10 9 8 8 9 8 8 9 11 11 12 14 16 18 16 14 13 11 9 9 12 14 16 16 14 12 9 9 10 12 13 16 19 17
15 15 17 20 23 23 23 23 23 23 23 23 23 23 23 24 23 23 23 23 22 21 19 16 14 13 13 12 12 11 11 13 14 13 15 22 21 18 18 18 18 18 18 18 17 18 17 19 22 24 26 27 24 18 12 9 9 8 9 9 9 9 10 11 11 13 15 18 18 16 14 12 11 9 10 10 13 17 15 13 12 12 14 16 17 16 18 20
18 15 14 17 20 22 23 23 23 23 23 23 23 23 23 23 24 23 23 23 23 22 20 18 15 14 13 13 12 11 11 12 14 13 13 19 22 19 18 18 18 18 18 18 18 18 17 18 21 22 26 28 27 23 15 10 9 9 9 10 10 10 10 10 11 12 15 19 18 17 16 14 13 12 11 10 12 17 19 17 14 15 16 16 17 16 16 19
23 18 15 15 17 20 22 23 22 23 23 23 23 23 23 23 24 24 23 23 23 22 21 19 17 15 14 13 12 12 11 12 13 13 12 16 22 21 18 18 18 18 19 19 19 19 17 18 20 21 24 29 30 27 20 13 9 9 10 10 11 11 11 11 12 13 15 18 19 17 17 16 15 14 13 12 12 14 15 15 13 13 15 14 15 16 16 18
26 23 18 15 14 16 20 22 22 22 22 23 23 23 23 23 23 24 24 23 23 23 22 21 18 16 15 14 13 12 11 12 13 14 13 13 20 23 20 18 19 19 19 20 20 20 19 18 20 20 23 28 31 30 25 17 11 9 10 11 11 11 11 11 11 13 15 18 20 18 17 17 16 16 15 14 13 13 13 12 13 12 12 12 13 15 18 20
24 26 23 17 15 14 16 19 21 22 22 23 23 23 23 23 23 23 24 24 23 22 22 22 20 17 16 14 13 12 12 12 13 14 13 13 17 24 23 19 19 19 19 21 21 21 20 19 19 20 23 28 31 31 29 23 15 11 10 11 11 11 11 11 11 12 15 18 21 20 20 19 18 17 16 16 15 13 13 13 13 13 12 12 11 13 17 18
20 25 26 22 17 14 14 16 18 20 22 22 22 23 23 23 23 23 24 24 23 22 22 22 21 19 17 15 14 13 12 12 13 14 14 13 14 23 26 21 19 19 20 22 22 22 21 20 19 20 23 26 29 31 31 28 21 13 11 11 11 11 10 11 11 11 14 17 20 22 22 20 19 19 18 17 16 15 14 14 14 13 12 13 12 14 16 16
16 22 26 25 21 16 14 14 15 17 19 21 22 22 22 22 23 23 23 24 23 23 22 22 22 20 18 16 14 14 13 12 13 14 14 14 13 20 27 25 20 19 21 22 23 23 22 21 20 21 23 24 26 30 32 32 27 18 13 11 11 11 11 11 11 11 13 15 18 20 21 21 19 19 19 18 17 16 15 14 14 13 14 14 15 15 15 13
13 18 23 26 25 20 16 14 14 15 16 19 21 21 21 22 23 23 23 23 23 23 23 22 22 21 18 16 15 14 13 13 13 14 15 15 13 18 26 27 22 20 21 22 24 24 23 22 21 22 22 22 25 30 33 33 31 24 16 12 12 11 11 11 11 11 11 13 16 17 17 18 18 19 19 19 18 17 16 15 14 14 14 15 16 16 14 12
12 15 20 24 26 25 20 16 14 14 15 16 18 20 20 21 22 22 23 23 23 23 23 23 22 22 19 17 16 14 14 13 13 15 15 15 14 16 25 29 24 21 21 23 25 25 24 23 22 22 22 21 24 30 34 35 33 29 21 14 12 12 11 11 12 11 11 13 15 16 17 18 20 22 22 20 19 17 16 15 15 15 14 15 15 15 14 12
14 13 17 21 25 27 24 19 16 14 14 14 15 17 18 20 21 21 22 22 23 23 23 23 22 22 20 17 16 14 14 14 13 14 15 15 14 15 23 29 27 22 21 23 26 26 25 24 22 23 23 21 23 29 35 36 35 33 26 18 13 12 12 11 12 12 12 15 18 20 22 22 23 25 25 21 19 17 17 16 15 15 14 14 13 12 12 11
16 14 14 19 23 26 26 23 19 15 14 14 14 15 16 18 19 20 21 21 22 23 24 24 22 22 20 18 16 15 14 14 14 15 15 16 15 16 23 29 28 23 21 24 26 26 25 25 24 23 23 22 22 29 35 37 37 35 31 23 15 12 12 12 12 13 14 16 20 24 25 24 22 23 24 22 19 17 16 16 15 15 14 13 13 12 12 12
17 16 14 16 21 24 27 26 22 17 15 14 15 15 15 16 18 18 20 21 22 23 24 23 23 22 20 18 16 15 14 14 14 15 15 16 15 16 23 28 28 25 23 25 27 27 26 25 25 24 24 23 22 28 35 38 38 37 34 28 19 14 12 12 13 13 15 17 20 22 24 24 21 21 22 21 20 18 17 16 15 15 15 14 14 13 13 15
18 17 15 14 18 22 26 27 25 20 16 15 14 15 15 15 16 17 18 20 21 22 23 23 23 22 20 18 16 15 15 14 15 15 15 15 15 17 23 28 29 27 25 26 27 27 26 26 25 25 24 23 23 27 34 38 39 38 36 32 24 17 13 12 13 13 14 15 18 20 22 22 21 20 20 20 20 19 18 17 17 16 16 16 16 15 14 15
21 18 17 15 16 20 24 28 28 24 19 15 15 15 15 15 15 16 17 19 20 21 22 23 23 22 19 17 16 16 15 15 15 15 15 15 16 19 24 28 30 28 26 26 28 27 27 27 26 25 24 24 24 26 33 36 38 39 36 34 29 21 15 12 12 13 14 14 16 17 19 20 20 19 19 20 20 19 19 18 17 17 16 17 17 16 14 13
23 21 18 16 15 18 22 27 29 28 22 17 15 15 15 15 15 16 17 18 20 21 22 23 22 21 19 17 16 16 15 16 15 15 15 15 16 20 25 30 31 29 26 26 27 28 28 27 27 26 25 25 24 25 30 35 38 40 38 35 32 26 19 14 12 13 14 14 14 15 17 17 17 17 18 20 20 19 18 17 17 17 18 18 18 17 15 13
23 23 21 17 16 16 20 26 29 29 25 20 16 15 14 15 15 15 16 17 19 20 21 22 21 21 19 17 16 16 16 16 15 15 15 15 17 21 27 31 31 29 26 26 28 28 29 29 28 27 25 25 25 25 29 33 36 40 40 35 33 30 23 17 14 13 13 14 14 15 16 16 16 17 18 19 20 20 19 18 17 18 18 18 18 18 17 15
21 24 23 20 17 16 19 24 29 30 28 23 18 16 14 14 15 15 16 17 18 19 20 21 21 20 18 17 16 15 16 16 16 15 15 15 18 22 28 32 31 29 26 26 28 28 29 30 28 27 26 25 25 25 27 32 35 38 41 37 32 31 27 20 16 14 13 13 13 14 16 16 17 18 18 19 19 19 20 19 18 18 18 18 18 18 17 16
19 22 24 22 19 17 18 22 27 30 30 26 21 17 15 14 14 15 15 16 17 18 19 20 20 19 18 16 15 15 16 16 16 15 15 16 17 22 28 32 31 29 26 27 29 29 30 30 30 28 27 26 25 25 27 30 33 37 40 38 33 30 28 23 18 15 14 13 12 13 14 16 17 19 18 18 19 19 19 19 19 18 18 18 18 18 18 17
19 20 23 24 22 18 18 21 25 29 31 29 25 20 16 14 14 15 15 16 17 18 19 19 19 19 18 16 15 15 16 16 16 16 16 16 16 21 27 31 32 28 26 27 29 30 30 30 31 29 28 27 26 25 26 28 31 35 39 39 34 29 27 25 21 17 15 14 13 12 12 13 15 18 17 18 19 19 19 19 20 19 18 18 18 18 18 18
20 19 21 24 24 21 19 20 24 28 31 31 28 23 18 15 14 15 15 15 16 17 18 18 18 18 17 15 14 15 16 16 16 16 16 16 16 19 24 30 32 29 26 27 30 32 31 31 30 29 28 28 27 26 26 27 30 33 37 38 33 28 26 25 23 19 16 15 13 12 12 11 13 15 16 16 18 18 18 19 19 20 19 18 18 18 19 18
21 20 20 23 25 24 20 20 23 27 30 33 32 26 20 17 15 15 15 15 16 16 17 17 18 18 16 15 14 15 15 16 16 16 16 16 16 17 22 28 32 31 28 27 30 32 31 31 30 30 29 28 28 28 26 27 28 31 36 37 33 27 23 24 24 21 18 16 15 13 12 11 12 14 14 14 16 17 17 17 18 19 19 19 18 18 19 19
22 21 20 22 25 26 23 21 22 25 29 33 34 30 24 19 16 15 15 16 16 16 16 17 17 18 16 15 15 15 15 15 16 16 16 16 16 16 19 25 31 33 29 28 29 32 32 31 30 30 30 29 29 29 28 27 27 30 34 36 34 26 20 21 23 23 20 18 16 14 13 12 12 13 13 13 14 15 15 15 15 16 17 19 19 19 19 19
23 23 21 21 24 26 26 23 22 24 28 32 35 34 28 22 18 16 16 16 16 16 16 17 17 17 16 16 16 15 15 15 15 16 16 16 17 17 17 22 30 34 32 29 28 31 32 31 31 31 32 31 30 30 29 28 27 28 31 34 34 27 19 16 19 22 21 20 18 16 15 13 12 13 13 13 14 14 14 13 12 12 14 16 18 19 20 20
21 24 23 22 23 26 28 26 23 23 26 30 34 35 32 25 19 17 16 16 17 16 16 16 16 17 16 16 16 16 15 15 15 15 16 17 16 17 17 20 28 35 35 31 29 30 32 32 31 33 34 33 32 31 30 29 28 27 29 32 34 30 20 14 15 18 19 20 20 18 16 14 13 13 13 13 13 13 13 12 11 11 11 13 15 17 19 20
19 24 24 23 23 25 28 28 25 23 24 27 32 36 34 28 22 18 17 17 16 16 16 16 17 17 17 17 17 17 16 15 15 16 16 16 16 17 18 19 25 35 38 35 30 31 33 33 33 34 35 36 35 34 31 30 29 27 28 30 32 32 25 16 13 14 16 18 20 20 18 16 14 13 13 13 13 13 13 12 12 11 11 11 13 15 18 20
17 23 26 25 23 25 28 30 29 25 24 25 29 35 36 30 25 21 18 17 16 17 17 17 17 17 17 18 17 17 17 15 15 16 16 16 16 17 18 19 23 33 40 39 33 31 33 33 34 34 35 36 38 36 33 32 31 29 28 29 30 32 30 22 14 13 14 16 18 20 19 17 15 14 14 14 14 14 13 13 13 12 12 12 12 14 17 19
17 20 25 26 24 25 28 31 31 28 26 26 27 33 37 33 28 24 20 17 17 16 17 17 17 18 17 17 18 17 17 16 15 15 16 15 16 16 18 19 23 31 40 42 38 33 31 33 34 34 34 36 38 38 36 34 33 31 29 29 30 32 32 28 18 13 14 15 16 19 19 17 16 14 14 14 15 15 14 14 14 13 13 12 12 13 15 18
17 19 24 27 26 27 30 32 33 32 29 27 28 33 37 35 30 27 22 18 17 16 17 17 17 18 18 17 18 17 16 16 15 15 15 15 15 16 17 19 23 29 37 43 43 37 32 32 33 34 33 36 38 38 37 36 35 34 31 29 30 31 33 32 24 15 13 15 15 17 18 18 16 15 15 15 16 16 15 15 14 14 13 13 13 13 13 16
17 19 22 27 29 30 31 32 34 35 32 28 30 34 36 35 33 30 24 19 17 16 17 18 18 18 18 18 18 17 16 15 15 15 15 15 15 15 17 19 22 27 34 43 47 43 36 32 33 34 33 36 38 37 37 37 36 35 33 30 29 31 32 33 29 20 14 15 16 16 18 18 17 16 16 17 17 16 16 15 15 14 14 14 14 14 14 14
16 19 22 26 30 32 33 34 36 38 36 32 32 35 36 36 34 31 26 20 17 17 17 17 18 18 18 18 18 17 16 15 15 15 14 14 15 15 17 19 21 25 33 44 48 46 41 35 34 34 33 35 37 36 37 38 37 35 34 32 30 31 33 33 32 25 16 14 16 17 18 18 17 17 17 18 18 18 17 16 16 15 15 15 14 14 14 14
17 19 23 26 31 34 35 37 39 41 39 35 34 36 36 36 34 32 28 22 18 17 17 17 18 18 18 18 17 16 15 14 14 15 14 14 15 16 17 19 21 26 33 42 47 48 45 39 34 34 34 35 37 37 37 38 38 36 34 33 31 32 33 34 35 29 19 15 16 17 19 18 17 17 18 19 19 19 18 18 17 16 16 15 15 15 15 15
17 19 23 27 31 36 38 40 43 44 42 39 36 36 36 35 34 32 28 23 19 17 17 17 17 18 17 16 16 15 15 15 16 15 15 14 15 16 18 20 22 25 30 38 44 49 49 43 37 34 34 35 36 37 38 37 37 37 34 33 32 32 33 33 36 33 23 16 15 18 19 18 16 17 19 20 20 20 20 19 18 17 17 17 16 17 16 16
19 19 23 28 32 36 40 43 46 47 45 42 38 36 36 35 34 33 29 25 21 18 17 16 16 16 16 15 15 15 16 17 17 16 15 15 16 18 19 20 22 24 29 38 46 51 52 47 41 37 36 37 37 39 39 37 37 36 35 35 34 32 32 33 35 35 27 18 15 17 19 18 16 18 20 21 21 21 20 19 19 18 18 18 17 17 17 17
20 20 22 28 33 37 42 45 48 49 47 44 41 37 36 35 34 33 30 26 23 19 17 16 16 15 15 15 16 17 18 18 17 17 16 16 17 19 21 21 23 26 32 41 49 52 53 49 44 40 38 38 40 40 39 38 37 36 36 35 34 33 33 33 36 35 29 21 15 15 19 19 17 18 21 21 21 21 20 19 19 19 19 19 18 18 18 18
21 21 21 27 33 37 43 47 49 51 50 47 43 39 36 35 34 33 31 28 25 21 18 16 16 16 16 16 17 18 19 18 18 17 17 18 19 20 22 23 26 31 38 46 51 52 51 48 45 42 39 39 41 40 39 38 38 37 36 34 34 34 34 35 37 36 31 23 16 15 19 20 19 20 21 21 20 20 19 20 20 19 19 18 19 19 19 20
22 22 22 25 33 38 43 48 50 51 52 50 45 41 37 34 34 33 30 28 26 22 19 17 16 16 16 17 18 19 19 18 18 18 19 20 21 22 25 28 32 37 43 49 50 47 47 46 44 42 40 40 41 41 40 40 40 38 36 34 33 34 35 36 38 37 32 24 17 16 19 20 21 22 21 21 20 20 20 20 20 19 18 18 19 20 21 21
24 23 23 24 30 38 43 48 51 53 54 53 49 44 40 35 33 32 30 27 24 22 19 17 16 15 16 17 18 19 19 19 20 20 21 22 23 27 31 36 40 43 47 51 49 45 45 46 46 44 42 42 42 42 41 41 41 38 36 34 33 34 36 36 37 37 32 25 19 17 18 20 22 23 22 21 21 22 21 21 20 18 18 19 20 21 22 22
26 25 24 24 27 36 43 47 51 54 55 56 54 49 45 40 35 32 29 27 24 21 19 17 16 15 16 18 19 20 21 22 22 23 24 27 31 36 40 44 47 48 50 51 49 48 47 47 47 46 44 43 42 42 42 41 41 39 37 35 34 35 36 35 36 35 30 24 20 18 17 21 24 24 22 21 21 21 22 21 20 19 18 19 21 22 23 23
28 27 26 25 26 32 42 47 51 54 56 57 57 55 51 46 40 35 30 27 24 22 20 18 17 17 18 20 22 24 24 25 27 30 33 37 42 45 48 49 50 51 51 50 50 50 49 47 48 48 46 43 41 40 40 40 41 40 39 38 37 36 36 35 35 33 28 23 20 18 17 20 25 24 22 21 20 20 21 20 19 18 18 19 20 22 23 23
30 30 29 27 25 29 38 46 51 54 57 58 59 58 56 53 48 43 37 32 28 25 23 22 22 22 23 25 28 30 32 34 37 41 44 47 50 52 53 52 52 52 51 51 51 51 49 48 48 47 47 43 39 38 38 38 39 40 41 41 40 38 36 36 35 32 28 24 21 19 18 22 26 25 22 22 21 21 21 20 19 18 17 19 21 22 24 24
32 32 32 30 27 27 33 42 49 54 57 59 60 60 60 58 55 52 49 45 40 35 32 31 31 32 33 35 38 40 42 44 46 48 50 52 53 54 54 53 52 52 52 51 51 50 49 48 46 46 46 42 39 39 37 37 38 39 41 42 40 38 37 36 35 32 28 24 21 19 21 25 27 24 23 23 22 21 21 20 20 19 18 20 22 24 25 24
36 34 35 34 30 27 30 36 44 50 55 57 59 61 61 59 58 56 55 54 52 49 47 46 45 45 46 47 48 49 49 50 50 51 51 52 53 53 52 51 51 51 50 50 50 49 49 47 45 44 44 43 43 41 38 37 37 38 41 42 40 37 37 36 34 31 27 22 20 19 22 26 27 24 24 23 22 22 22 21 21 20 20 21 23 25 25 25
39 37 36 37 35 30 28 32 38 44 51 55 58 60 61 60 59 56 55 55 56 56 56 55 54 53 53 53 53 52 52 52 51 51 51 51 51 51 50 50 50 50 49 49 49 48 47 46 45 45 45 45 44 42 39 37 36 39 43 42 38 37 37 36 33 29 24 20 19 20 22 25 25 24 24 23 22 22 22 22 22 21 21 22 23 24 25 26
40 40 38 39 39 35 30 30 33 38 45 50 55 58 60 60 59 57 55 55 56 57 57 58 58 56 55 55 54 53 52 52 52 51 51 50 50 50 50 49 49 50 50 50 50 49 49 49 49 48 47 46 42 39 38 36 38 43 46 42 38 38 37 35 32 27 22 20 19 21 23 24 23 23 24 23 22 23 23 23 23 21 21 21 22 24 26 27
Wind_Speed
30 28 28 26 25 23 21 19 18 17 15 14 13 12 11 9 9 9 9 10 11 12 13 14 14 15 16 18 19 20 22 23 25 25 24 23 24 27 29 31 34 36 37 39 42 44 45 44 42 38 35 33 30 26 22 19 16 13 9 5 6 6 7 5 5 6 5 5 6 6 4 3 2 0 1 2 3 3 3 4 6 6 6 5 4 4 4 4
32 31 29 28 27 26 24 22 20 19 18 16 15 14 13 11 10 9 9 10 11 12 13 14 14 15 16 17 18 20 21 22 24 25 24 23 23 25 27 29 31 34 36 37 40 42 44 44 43 40 37 35 32 28 24 21 17 14 9 4 3 2 2 1 1 3 4 4 4 4 3 1 2 2 2 2 2 1 1 1 3 5 6 6 6 5 4 3
35 33 32 30 30 28 27 24 23 21 20 19 18 16 15 13 11 10 10 11 11 12 13 14 15 15 16 16 17 19 20 21 23 24 24 23 23 24 25 27 29 32 34 35 37 40 42 44 44 42 39 36 34 31 27 23 19 16 11 5 2 3 2 3 3 1 1 2 3 3 3 3 3 2 2 2 2 2 1 0 3 5 6 6 6 6 5 4
37 35 34 33 32 31 29 27 25 23 22 21 20 18 17 15 13 12 11 11 12 13 13 14 15 15 16 16 17 18 19 20 21 23 24 23 22 23 24 26 28 30 32 33 35 38 40 43 44 43 41 39 36 34 30 26 21 18 13 6 1 3 3 3 3 3 2 2 1 1 2 4 5 5 3 1 1 1 2 2 4 4 4 5 5 5 5 5
40 38 37 35 34 33 32 29 27 26 24 23 22 21 19 17 15 14 13 12 12 13 14 15 15 16 16 17 17 18 19 19 20 22 23 23 22 23 23 25 27 28 30 32 34 36 38 41 43 43 42 41 39 37 33 29 24 20 15 9 3 1 1 0 1 3 3 4 4 3 3 4 5 5 5 4 4 4 4 4 4 4 2 2 3 3 3 5
43 41 39 37 36 35 34 32 30 28 26 25 24 22 21 19 17 16 15 14 13 14 15 15 16 16 16 17 17 17 18 19 19 20 22 22 22 22 23 24 25 27 29 31 32 34 36 39 42 43 43 43 41 39 36 33 28 23 19 14 8 4 4 3 2 3 4 6 7 6 5 6 6 4 4 5 6 6 5 5 5 5 4 2 1 0 2 4
45 44 42 40 38 37 36 34 32 30 29 27 26 24 23 21 19 18 17 15 15 15 15 16 16 17 17 17 18 18 18 18 19 19 21 22 22 22 22 23 24 26 27 29 31 33 34 37 40 42 43 44 43 41 39 36 32 27 22 19 14 9 7 5 3 3 5 7 9 8 8 7 7 5 5 5 6 7 6 6 6 7 6 6 5 5 5 6
47 46 45 43 41 40 38 36 34 33 31 30 28 26 25 23 21 20 19 17 16 16 16 16 17 17 17 18 18 18 17 18 19 18 19 21 21 22 22 22 23 25 26 28 30 31 33 35 38 41 43 44 44 43 41 39 35 31 26 23 19 12 8 5 4 3 5 7 9 10 10 9 8 7 7 7 7 7 7 8 8 8 8 8 8 7 7 8
50 48 47 46 44 42 40 38 37 35 33 32 30 28 27 25 24 22 20 19 18 17 17 17 17 18 18 18 19 19 18 18 18 18 18 20 20 21 21 22 23 24 25 27 29 30 32 34 36 39 42 44 45 45 43 41 38 34 31 27 22 14 8 6 4 3 4 6 9 12 12 10 9 9 8 7 7 7 7 8 8 9 9 9 9 9 9 9
52 50 49 48 47 45 43 41 39 37 36 34 33 31 29 28 26 24 23 21 20 19 18 18 18 18 19 19 19 19 18 18 18 18 18 19 20 20 20 21 22 23 24 26 28 29 31 33 34 37 41 43 45 45 44 42 40 38 34 30 24 16 11 8 5 3 3 5 9 12 12 11 10 9 9 8 7 8 8 8 9 9 9 10 11 11 11 11
53 52 51 50 50 48 46 44 42 40 38 37 35 33 32 30 28 26 25 23 22 21 20 19 19 19 19 19 19 20 19 18 18 18 18 18 19 19 19 20 21 22 24 26 27 29 30 32 33 36 39 42 44 45 44 43 42 41 38 32 25 19 14 10 6 3 1 4 8 11 11 10 10 9 9 9 8 9 9 9 10 10 10 11 12 13 13 14
54 54 53 52 51 50 49 47 45 43 41 39 38 36 34 32 30 29 27 25 24 23 22 21 20 20 20 20 19 20 19 18 18 19 19 18 18 19 19 19 20 21 23 25 26 28 29 31 32 35 37 40 43 43 44 43 43 43 39 33 27 21 15 10 6 3 1 2 6 9 10 10 9 9 9 9 9 9 10 10 10 10 11 11 12 13 14 15
55 55 55 54 53 52 51 50 48 46 44 42 40 39 37 34 33 31 29 28 26 25 23 22 22 21 21 20 20 20 19 19 19 19 19 18 18 19 19 19 20 21 22 24 26 27 28 29 31 33 35 38 40 41 43 44 45 44 41 34 28 24 18 12 8 5 3 1 4 7 8 9 9 8 8 9 9 10 10 10 10 10 11 12 12 13 14 14
56 56 56 56 55 54 53 52 50 49 47 45 43 41 39 37 35 34 32 30 28 27 25 24 23 23 22 21 20 20 19 19 19 20 20 19 18 18 19 19 19 20 21 23 25 26 27 28 30 32 33 35 37 40 43 45 45 44 41 36 31 27 23 17 12 8 5 3 2 4 6 7 8 8 9 10 11 11 11 11 10 11 11 12 13 13 14 14
56 57 57 57 57 56 55 53 52 51 49 47 46 44 42 40 38 36 34 33 31 29 27 26 25 24 23 22 21 20 20 20 20 20 20 20 19 18 19 19 19 20 21 22 24 25 26 27 29 31 32 33 35 39 42 45 45 43 42 39 34 31 28 23 18 13 9 5 3 2 4 5 7 8 9 10 12 12 12 12 11 11 12 13 14 15 16 16
57 58 58 58 58 58 57 55 54 52 51 50 48 47 45 42 40 38 37 35 33 31 29 28 26 25 25 24 23 21 20 20 20 21 21 21 20 18 19 19 19 19 20 21 23 24 26 27 28 29 30 32 34 38 41 43 44 43 42 40 36 32 30 26 22 18 13 10 6 4 4 5 6 9 11 12 14 14 14 14 14 14 14 15 15 16 17 18
57 58 59 59 59 59 58 57 55 54 53 52 51 49 47 45 42 41 39 37 36 34 31 30 28 27 27 26 25 23 21 21 21 21 21 21 20 19 19 20 19 19 19 21 22 24 25 26 27 28 29 31 33 36 39 42 43 43 43 41 38 34 30 27 23 21 18 14 12 10 10 10 11 12 13 13 14 15 16 16 16 16 16 16 15 15 16 17
59 59 60 60 60 60 60 59 57 55 54 53 52 51 49 47 45 43 41 39 38 36 34 32 30 29 29 28 26 24 23 22 21 21 21 21 21 20 20 20 20 19 19 20 21 23 24 26 26 27 28 31 33 35 37 39 41 42 42 41 38 35 32 28 24 22 20 17 15 14 14 13 12 11 12 12 13 14 15 16 16 17 16 16 17 17 17 18
60 60 61 61 61 61 61 60 59 57 55 54 54 53 51 49 47 45 43 42 40 38 36 34 32 32 31 29 27 25 24 23 22 21 21 21 21 20 20 20 20 20 19 19 21 22 24 25 26 26 27 30 32 34 36 37 39 40 41 40 38 35 32 29 25 22 19 17 15 14 13 12 11 10 10 11 12 13 14 14 15 16 16 17 18 19 19 19
62 61 62 62 62 62 62 61 60 59 57 56 55 54 52 51 49 47 45 43 42 40 38 36 34 33 32 30 28 26 25 24 22 21 21 21 21 20 20 20 20 20 19 19 20 21 23 24 25 25 26 28 31 32 34 36 37 39 39 38 37 35 32 28 25 22 18 15 12 11 11 11 11 11 11 11 12 13 13 14 15 16 16 17 18 19 19 19
64 63 63 63 63 63 62 62 61 61 59 57 56 55 54 52 51 49 47 45 43 42 40 38 36 34 33 32 29 28 26 24 22 21 21 21 21 20 20 20 20 20 19 19 20 21 23 24 25 25 25 27 29 31 32 34 36 37 38 38 36 34 32 29 24 21 19 15 11 9 9 10 11 11 11 12 13 13 13 13 15 16 16 17 18 19 19 18
66 65 64 64 64 64 63 63 63 62 61 59 57 56 54 53 52 50 48 47 45 43 42 39 37 36 34 33 31 29 27 25 23 21 21 21 21 20 20 21 20 20 19 19 20 21 23 24 24 24 24 26 28 29 31 32 34 36 38 37 35 34 32 30 26 22 19 17 13 10 9 9 10 10 11 12 13 14 14 14 15 16 17 18 19 19 19 18
69 67 65 65 64 64 64 64 64 63 62 61 59 57 55 54 53 52 50 48 47 45 43 40 39 37 36 34 32 30 28 26 24 22 21 21 21 20 20 21 21 21 20 20 21 22 22 23 24 24 24 24 26 27 29 31 33 35 37 36 35 34 33 31 28 24 21 19 17 14 12 12 12 12 12 12 14 15 15 15 15 17 18 19 19 19 20 19
71 69 67 66 65 65 65 65 65 64 63 62 60 58 56 55 54 52 51 50 48 46 44 43 41 39 37 35 33 31 28 27 25 23 22 21 21 21 21 21 22 22 21 20 21 21 22 23 23 23 23 23 25 26 27 29 32 34 35 36 34 33 33 31 28 26 23 21 20 18 16 16 16 15 14 14 15 16 17 17 17 18 19 20 20 19 20 19
72 71 70 68 66 66 66 66 66 65 64 63 62 60 58 56 54 53 52 50 49 48 46 45 43 41 39 37 35 32 30 29 27 25 23 22 21 21 21 22 23 22 21 21 22 22 22 23 23 23 23 23 24 25 26 28 31 33 34 35 34 32 32 31 28 27 25 23 22 21 20 19 19 19 18 16 17 17 18 19 19 19 20 21 20 19 19 19
74 73 72 69 67 67 67 67 67 66 65 64 63 61 59 57 55 54 53 51 50 49 48 46 45 43 41 38 36 34 32 30 28 26 24 23 22 22 22 23 23 23 22 22 22 22 22 23 23 23 23 23 23 24 25 27 29 31 33 34 34 32 31 30 29 27 26 24 23 23 23 22 22 22 21 20 19 19 19 19 20 20 20 21 20 19 19 19
76 75 73 71 69 68 68 68 68 67 66 65 64 63 61 59 56 55 54 52 52 50 49 48 46 44 42 40 38 35 33 31 29 27 26 25 24 23 23 24 24 24 23 23 23 23 22 23 23 23 22 22 23 24 25 26 27 30 32 34 33 32 31 30 29 28 26 25 25 25 25 24 23 24 25 23 23 23 22 21 21 21 21 20 20 20 20 20
79 77 75 73 71 69 68 69 69 69 68 66 65 64 62 60 58 56 55 54 53 52 51 50 48 46 44 42 39 36 34 33 30 28 28 27 26 24 24 25 25 25 24 23 24 24 24 24 24 23 22 22 23 24 25 26 27 29 31 33 33 32 31 30 29 29 28 26 26 26 26 25 24 25 27 26 25 25 25 24 23 22 21 21 20 20 20 21
82 79 77 75 73 71 69 69 70 70 69 67 66 65 64 62 60 58 56 55 54 53 53 51 49 48 46 44 40 38 36 34 32 31 30 29 28 26 26 26 26 26 25 24 25 25 26 25 25 24 23 23 24 25 25 26 27 28 30 32 33 32 31 30 29 29 30 29 28 28 28 28 26 25 27 27 27 27 27 27 26 25 23 22 22 22 22 23
85 82 79 77 75 73 71 70 71 71 70 69 67 67 66 64 62 60 58 57 56 55 54 53 51 50 48 45 41 40 37 35 34 33 31 30 29 28 27 27 27 27 27 26 26 27 27 27 26 25 25 25 25 26 27 27 28 29 30 31 32 32 31 29 28 28 29 30 30 29 29 30 28 27 28 28 27 28 28 29 29 28 27 25 24 24 25 25
87 85 82 79 77 75 73 72 72 71 71 70 69 68 67 66 64 62 60 59 58 57 56 55 53 51 49 46 43 41 38 36 36 34 32 32 31 30 29 28 28 28 28 28 28 28 28 28 28 27 26 27 27 28 28 29 29 29 30 31 32 32 31 29 28 27 28 28 29 30 30 30 30 29 29 29 28 29 30 30 31 31 30 29 28 27 28 28
89 87 85 82 79 77 75 74 73 72 72 72 71 69 68 67 66 64 63 61 60 59 57 56 54 52 49 47 45 42 40 38 37 35 34 33 32 32 31 29 29 30 30 30 30 30 30 30 29 29 28 29 29 29 30 30 30 29 30 30 32 32 31 28 27 27 27 27 28 30 31 31 31 30 30 30 29 30 31 32 33 33 32 31 31 30 30 31
91 89 87 84 81 79 77 76 74 73 73 73 72 71 70 69 68 67 65 63 62 60 58 56 55 53 50 48 47 44 42 41 39 37 36 35 33 33 32 31 31 31 31 32 33 32 32 32 31 30 30 31 31 31 31 31 31 31 31 31 32 33 32 30 28 27 27 27 27 29 31 32 33 32 32 31 31 31 33 33 34 35 35 34 33 32 32 32
94 91 89 87 84 80 79 78 76 75 74 74 73 72 71 71 71 70 67 65 63 60 58 57 56 54 52 51 49 47 46 43 40 39 38 36 35 34 34 33 33 33 32 33 35 35 34 34 33 32 32 32 33 33 34 33 33 33 32 32 32 33 33 32 30 28 27 27 28 28 30 33 33 34 34 33 33 33 35 35 36 37 37 36 35 34 33 33
96 93 91 89 85 82 81 80 78 76 75 75 74 73 73 74 73 71 69 66 64 61 59 58 57 56 55 54 52 50 48 45 43 42 40 38 37 36 36 35 35 35 34 35 37 37 37 36 35 35 34 34 35 35 36 35 35 35 35 34 34 34 34 34 32 30 29 28 28 28 30 32 33 35 36 35 35 35 37 37 38 39 39 38 37 36 35 35
98 95 93 90 87 84 83 82 80 78 76 75 75 75 76 76 75 72 70 68 65 62 60 59 58 57 57 55 54 52 50 47 45 44 42 40 39 38 38 38 37 37 36 36 38 40 39 38 37 37 36 36 37 37 37 37 37 37 37 36 35 35 36 36 34 33 31 29 29 29 30 32 33 35 36 37 37 37 38 39 40 41 41 40 39 39 38 37
100 97 94 91 88 87 86 84 81 79 77 76 76 77 78 77 75 73 71 69 66 64 62 61 59 59 58 57 56 54 52 49 47 46 45 43 42 41 40 40 39 39 38 38 40 42 42 40 40 39 38 38 39 39 39 39 39 39 38 38 37 37 37 37 36 35 33 32 31 30 30 32 34 36 36 37 38 39 40 41 41 42 43 43 42 41 41 40
102 98 95 93 90 89 88 85 82 81 78 77 78 79 79 78 76 74 71 70 68 65 63 62 61 61 60 58 57 55 53 51 49 48 47 45 44 44 42 42 41 41 40 41 42 44 44 43 42 42 41 40 41 41 40 40 41 40 40 40 39 38 38 38 38 37 36 34 33 33 32 33 35 36 37 38 38 40 41 42 43 44 45 44 44 43 43 42
102 99 96 94 92 91 89 86 84 82 80 79 80 80 80 79 77 74 72 71 69 67 65 63 63 62 61 60 58 56 55 53 52 51 49 47 46 46 44 43 44 43 43 43 44 45 46 46 45 44 43 43 43 43 42 42 42 42 42 41 41 40 40 40 40 39 38 36 35 34 35 36 36 37 38 38 39 40 42 43 45 46 47 46 46 46 45 45
103 100 98 95 94 93 91 88 86 84 82 81 81 82 81 79 77 74 73 72 71 69 67 65 64 63 62 61 59 58 57 56 54 53 51 49 49 48 46 46 46 46 45 46 47 47 48 49 48 46 46 46 45 45 45 44 43 44 43 43 42 43 42 42 42 41 40 38 36 36 38 39 39 38 38 39 39 41 42 44 46 47 48 48 48 48 48 47
103 101 99 97 95 94 92 90 87 85 83 83 83 83 82 79 77 75 74 74 73 71 69 67 66 65 64 63 61 60 59 58 56 54 52 51 51 51 49 48 48 48 47 48 49 49 50 51 50 49 48 48 47 47 47 46 45 45 45 44 44 44 44 44 43 43 42 41 39 38 40 42 42 40 40 40 40 41 43 46 47 48 49 49 49 49 49 49
104 101 99 98 96 95 93 91 89 87 85 85 85 84 81 79 77 76 75 75 74 73 71 70 68 67 66 65 64 62 60 59 58 56 54 54 54 54 52 50 49 49 49 50 51 52 52 52 52 52 50 49 50 50 50 49 47 46 46 46 46 46 46 46 45 45 45 44 42 41 41 44 44 42 42 42 43 44 46 47 48 49 49 50 50 51 51 50
104 102 100 99 97 96 94 93 91 89 87 86 85 84 81 80 79 78 77 76 76 74 73 72 70 69 69 68 66 64 62 61 59 58 57 57 57 57 54 51 50 51 51 52 53 54 54 54 54 54 52 51 51 51 51 51 49 48 48 48 48 47 48 48 48 47 47 46 46 43 42 45 46 45 44 45 46 48 49 49 49 51 52 52 52 52 52 52
104 102 101 100 98 97 95 94 92 90 88 87 86 85 83 82 81 79 78 77 77 76 75 73 73 72 71 70 68 66 64 63 62 60 59 59 59 58 55 53 52 53 54 55 56 55 56 56 57 56 54 53 53 53 53 52 52 51 50 50 49 49 49 49 49 49 49 49 48 45 44 46 47 47 47 48 50 51 51 51 52 54 55 54 54 53 54 54
104 103 102 100 99 98 96 95 93 91 90 88 89 88 86 84 83 80 78 79 79 77 76 75 75 74 74 72 70 68 66 65 64 62 61 60 60 59 57 55 55 56 57 58 58 57 57 58 59 58 56 55 54 54 54 54 53 53 52 52 51 51 51 51 51 50 50 50 49 48 47 48 49 49 50 51 51 52 53 54 56 58 58 57 56 55 55 55
104 103 102 101 100 98 97 96 95 93 92 91 91 90 87 85 84 81 80 80 80 79 78 78 77 77 76 74 72 70 68 67 65 63 62 61 61 60 59 58 58 59 60 60 60 59 58 59 60 61 59 57 56 56 56 56 55 55 54 54 54 54 54 54 53 52 52 51 50 51 50 49 51 53 53 54 54 54 55 56 58 60 60 59 58 57 56 57
103 102 102 102 100 99 97 96 95 94 93 93 92 91 88 86 85 83 82 82 81 81 81 80 79 78 77 75 73 71 69 67 66 64 63 63 62 62 62 61 60 61 61 62 61 60 60 60 61 63 62 60 59 58 57 57 56 56 56 55 55 56 56 56 55 55 54 53 53 54 53 52 54 56 56 57 57 57 58 59 61 62 62 60 59 58 58 59
102 102 102 102 101 99 98 97 96 95 95 95 94 92 90 89 87 86 84 83 82 82 82 81 80 79 77 76 74 73 71 69 68 66 65 64 64 64 64 63 63 63 63 63 62 62 62 62 63 64 65 64 62 60 58 58 57 57 58 57 58 58 57 57 57 56 56 55 55 56 56 56 57 58 59 59 59 59 60 61 63 64 64 62 60 59 60 60
100 101 101 101 101 100 99 98 97 96 96 96 94 93 92 91 90 88 86 84 83 82 83 82 80 79 79 77 76 75 73 71 70 69 67 67 66 66 66 65 65 64 64 64 64 64 65 65 64 65 68 68 66 63 61 60 59 59 60 60 61 61 59 58 57 57 56 55 55 56 56 57 59 60 60 61 61 62 63 63 64 65 65 62 61 61 61 62
97 99 100 100 101 101 100 99 98 97 97 96 95 94 93 93 92 91 88 85 84 83 83 83 82 81 80 79 78 77 75 73 72 71 70 69 68 68 68 68 67 67 67 67 67 67 67 67 67 67 69 70 68 65 63 62 61 61 62 63 64 63 62 60 60 59 58 57 56 56 56 58 61 62 62 62 63 64 65 65 66 66 65 63 62 62 62 62
95 98 99 99 100 101 100 100 99 98 97 96 95 94 94 94 94 93 90 87 86 85 85 85 84 83 82 81 80 78 77 75 74 73 72 71 71 70 70 70 70 70 70 70 69 69 69 69 69 69 69 69 69 68 66 64 63 63 65 67 66 65 64 63 63 62 60 59 59 59 59 60 62 63 64 64 65 65 66 66 66 67 66 65 64 64 63 62
93 96 98 98 99 100 101 100 99 98 97 96 95 94 95 95 95 95 92 90 89 88 87 86 86 85 84 83 81 80 78 77 77 75 74 74 73 73 73 73 73 72 72 72 72 71 71 70 70 70 70 70 70 70 68 67 65 65 68 70 68 66 65 65 64 64 63 62 62 62 62 64 65 65 66 67 67 67 66 67 68 68 67 66 65 65 64 62
Wind_Direction
227 228 231 234 235 235 233 233 237 242 246 249 255 263 271 282 295 309 319 327 334 342 347 351 358 359 358 0 2 2 4 7 10 9 8 7 8 10 13 16 18 20 21 23 24 25 26 26 27 26 26 26 26 24 21 19 16 17 25 8 347 18 42 25 359 6 21 44 66 73 70 78 82 64 28 1 358 21 44 47 46 42 34 36 42 35 18 358
227 228 230 233 236 237 236 235 236 241 245 249 253 258 265 274 285 298 309 318 326 333 338 342 349 354 353 356 358 359 1 4 7 8 8 6 6 7 10 13 15 17 20 23 24 24 25 26 26 25 24 24 24 23 21 18 16 16 24 13 319 334 50 73 340 356 0 7 28 43 41 76 165 179 144 103 76 59 28 24 57 58 45 34 34 32 23 8
228 229 230 232 235 237 238 237 236 239 243 248 252 256 262 268 277 288 299 309 318 324 329 333 340 346 347 350 354 355 357 0 4 6 7 6 4 5 8 11 13 15 19 22 23 23 25 25 25 25 23 22 22 22 20 17 16 13 16 20 281 255 234 196 195 232 351 353 1 11 350 315 286 246 177 140 140 129 172 273 54 62 64 51 39 28 17 8
229 229 230 232 234 237 239 239 238 239 241 246 250 254 259 265 272 280 290 300 309 315 320 325 331 338 341 344 348 351 353 356 0 3 5 5 4 4 6 9 10 13 17 21 22 22 23 24 24 24 23 21 21 21 19 16 16 12 8 5 265 223 227 216 202 203 222 262 271 260 283 288 293 289 278 265 321 9 1 19 35 48 75 75 62 44 22 9
230 230 231 231 233 236 238 240 240 240 241 244 248 253 257 262 268 274 282 291 300 305 311 316 322 329 334 337 342 346 349 351 356 1 3 4 4 3 5 7 9 11 15 19 20 21 22 22 22 23 22 21 20 20 18 16 16 14 6 353 329 161 136 85 232 230 233 250 248 230 237 261 276 288 300 303 309 317 331 360 9 10 38 86 85 66 32 4
231 231 231 232 233 235 238 240 241 241 242 244 247 251 255 259 264 269 275 283 290 297 303 308 314 320 327 331 335 340 343 346 351 357 1 2 3 3 4 6 8 9 12 16 19 20 20 20 21 22 22 20 19 19 17 16 16 15 9 355 355 43 48 32 335 270 257 258 257 245 240 248 260 272 293 293 285 289 305 332 339 338 335 308 264 338 344 333
232 232 232 232 233 235 237 239 241 242 243 244 246 249 253 256 260 265 270 276 283 289 294 301 307 313 320 325 329 334 337 340 345 352 358 0 2 2 3 4 6 8 10 14 17 18 18 19 20 21 21 20 19 18 16 15 15 16 13 4 6 30 35 14 344 296 269 263 261 255 248 247 255 259 261 261 263 273 288 307 319 319 320 314 293 281 291 308
232 232 233 233 233 234 236 238 240 242 243 244 246 248 251 254 257 262 267 271 277 282 287 294 300 306 314 319 323 328 331 334 340 346 353 357 359 1 1 2 5 7 9 11 14 16 16 17 19 19 20 20 19 18 16 14 15 16 17 13 11 23 31 12 348 320 287 272 266 261 257 253 253 254 256 261 269 279 289 300 311 314 314 313 306 293 291 303
232 232 233 233 234 234 235 237 239 241 243 244 246 248 250 253 255 259 263 267 272 277 282 287 294 301 307 313 318 322 325 328 334 340 347 354 357 358 360 1 3 5 8 9 11 13 14 16 17 18 19 20 19 18 15 13 14 16 19 18 14 15 16 7 358 342 313 290 276 267 263 258 254 254 258 266 276 283 289 295 301 308 311 308 306 307 308 311
232 233 233 234 234 235 235 236 238 240 242 244 246 247 249 252 254 257 260 264 268 272 277 282 288 295 301 308 313 317 320 322 328 334 339 348 353 355 357 359 1 4 6 7 9 11 11 14 15 16 18 19 19 17 15 13 12 16 20 20 16 10 2 356 2 3 324 289 274 269 268 266 264 262 263 267 274 277 278 282 290 301 305 306 308 314 320 321
232 233 233 234 234 235 235 236 237 239 241 243 245 247 248 251 253 255 258 262 265 269 274 278 284 290 296 303 309 312 315 317 322 328 332 340 348 352 354 356 359 2 5 6 7 8 9 11 14 15 16 18 19 17 14 12 12 16 20 20 16 9 359 352 357 10 332 286 277 274 274 276 277 278 277 276 278 279 279 283 291 297 301 308 314 320 326 326
231 232 233 234 235 235 235 236 237 238 240 242 245 246 248 250 252 254 257 260 263 267 270 275 279 285 291 298 304 308 310 312 316 321 326 332 341 348 349 351 355 360 4 4 5 5 6 9 12 13 15 18 18 16 14 13 13 16 19 19 15 10 1 352 356 10 17 302 285 285 287 290 292 292 290 287 284 284 286 291 296 301 307 316 322 326 326 324
231 231 233 234 235 235 235 236 236 238 239 241 243 246 247 249 251 253 255 258 261 264 268 272 276 281 286 293 299 303 305 307 311 316 320 326 334 342 345 346 350 356 1 3 3 3 4 7 10 11 13 16 16 14 13 14 15 15 17 17 13 10 6 3 5 11 26 356 291 293 298 300 302 302 301 297 294 292 292 297 303 309 315 318 321 323 321 320
230 231 232 233 235 236 236 236 236 237 239 240 242 245 247 248 250 252 254 256 259 262 265 269 273 277 283 289 294 298 300 303 307 311 316 320 326 336 341 342 345 350 357 1 1 1 2 4 7 10 12 13 13 13 13 15 16 14 14 14 11 9 9 11 14 15 22 21 307 292 295 298 304 311 311 307 303 300 300 303 309 314 317 318 319 318 316 315
230 230 231 232 234 235 236 236 237 237 238 240 242 244 246 248 249 251 253 255 257 260 263 266 271 275 279 284 288 292 295 299 303 307 312 315 320 329 336 338 339 344 353 359 360 360 360 1 5 9 9 8 10 12 13 14 15 13 12 12 9 7 8 10 12 17 27 32 11 309 296 304 314 318 317 315 312 310 311 312 314 318 321 322 322 321 319 317
230 230 231 231 233 235 236 237 237 237 238 239 241 243 245 247 248 250 252 254 256 258 261 264 268 272 275 279 283 287 291 295 299 304 307 311 315 322 330 334 335 339 348 355 358 358 358 359 3 6 6 5 8 12 13 13 13 13 11 10 8 6 7 8 7 10 21 31 27 10 357 353 347 341 334 328 322 319 321 323 324 325 327 327 325 322 320 319
229 230 230 231 232 234 235 236 237 238 238 239 241 242 244 246 247 249 251 253 255 257 259 262 265 269 272 275 279 283 287 290 295 300 304 308 311 315 324 330 332 335 344 352 355 356 356 358 1 3 2 2 6 10 13 13 12 11 10 9 7 4 5 8 6 5 12 20 19 14 12 12 6 351 338 330 325 324 326 327 327 327 328 327 325 322 320 319
229 229 230 230 231 233 235 236 237 238 238 239 240 241 243 244 246 247 249 251 254 256 258 260 263 266 269 272 277 280 283 286 291 296 300 304 307 310 318 326 328 332 340 349 352 353 354 357 359 0 360 360 3 8 11 12 11 10 9 8 6 3 2 5 5 3 8 13 13 11 8 5 0 345 331 329 326 324 324 324 323 323 324 325 325 323 322 320
229 229 230 230 231 232 234 235 236 238 238 239 239 241 242 243 244 246 248 250 252 254 256 258 261 264 267 271 274 277 279 283 288 293 297 300 303 306 313 321 325 328 336 344 347 349 351 355 357 358 358 358 1 6 9 10 10 10 9 7 5 3 1 2 2 1 5 11 10 8 2 355 350 339 331 331 327 322 321 321 321 320 321 324 325 323 322 321
228 229 229 230 230 231 233 234 236 237 238 239 239 240 241 242 243 245 247 249 251 253 254 257 259 262 265 268 271 274 277 281 284 289 293 296 299 302 308 316 320 324 332 337 340 344 348 353 356 356 355 355 358 3 6 7 7 7 8 7 5 3 1 1 1 359 0 7 10 6 357 347 342 337 333 330 325 322 322 321 319 319 320 323 324 323 321 320
229 229 229 229 230 230 232 233 235 236 238 239 239 240 241 241 242 244 246 248 249 251 253 255 258 260 263 265 268 271 274 277 280 285 289 292 295 297 303 312 317 320 326 330 333 339 344 349 353 353 353 353 356 1 3 4 3 3 5 6 5 3 1 0 0 358 355 360 5 1 354 343 337 334 330 327 325 323 322 319 315 315 319 321 322 320 319 318
229 229 229 229 229 230 231 232 234 236 237 238 239 240 240 241 242 243 244 246 248 250 252 254 256 258 261 263 265 267 270 274 277 281 286 289 291 293 299 308 312 314 319 323 327 334 340 345 349 351 351 351 352 357 360 0 0 0 2 3 3 2 0 0 0 357 352 352 353 351 345 338 330 327 325 324 323 321 319 315 311 314 318 319 318 316 316 317
229 229 229 229 229 229 230 231 233 235 236 237 238 239 240 241 241 242 243 244 247 249 251 252 254 256 258 260 262 264 267 271 274 278 282 285 287 289 295 302 306 308 313 317 321 329 334 338 344 348 349 348 348 352 355 356 357 357 358 0 1 360 359 359 358 356 351 345 344 341 335 330 326 324 326 323 320 318 316 313 312 316 319 318 317 317 315 315
229 229 229 229 229 229 229 230 232 234 235 236 238 238 239 240 241 241 242 243 245 247 248 250 252 254 256 258 260 262 264 267 271 275 279 282 284 286 291 297 300 303 307 311 315 323 328 332 338 344 347 346 344 347 351 352 354 355 355 357 358 358 357 357 356 354 352 344 339 336 330 326 325 325 326 324 320 318 316 315 316 317 318 317 317 317 315 315
230 229 228 229 229 229 229 230 231 233 234 235 237 238 239 240 240 241 241 242 244 245 247 249 251 253 255 257 258 260 262 265 269 273 277 280 281 282 286 291 295 298 301 305 309 316 322 326 332 340 344 343 342 343 346 348 350 352 353 354 355 356 355 355 354 352 351 346 339 334 328 324 323 322 324 325 322 320 319 316 316 317 316 316 315 314 312 312
229 229 229 228 228 229 229 229 230 231 233 234 236 237 238 239 240 240 240 241 242 244 246 248 250 252 254 255 256 257 259 262 267 271 275 278 279 279 281 286 290 293 297 300 304 310 316 321 326 334 338 339 338 338 340 344 347 349 350 351 352 353 352 353 352 350 350 347 341 337 331 327 323 319 320 323 321 320 320 318 316 314 314 313 312 311 308 307
228 229 229 228 228 228 229 229 230 231 232 233 235 236 237 238 239 239 240 240 241 243 244 246 248 251 252 253 254 255 257 260 265 269 272 275 276 276 277 282 286 290 293 296 300 305 310 314 319 326 332 334 334 333 335 339 343 346 348 349 350 350 349 350 349 347 347 346 343 341 336 332 327 321 319 320 319 318 319 318 315 312 310 309 309 308 306 304
227 228 228 228 227 228 228 229 229 230 231 232 234 235 237 237 238 239 239 239 240 241 243 245 247 249 250 251 253 254 255 259 262 265 268 272 274 274 275 279 283 287 289 292 296 300 304 308 312 319 324 327 329 329 331 335 339 343 345 348 348 348 347 347 346 344 343 343 343 342 340 337 333 325 321 320 318 316 315 315 312 309 307 306 307 307 304 303
226 227 227 228 227 227 228 228 229 230 231 232 233 235 236 237 238 238 238 238 239 240 242 244 246 248 250 251 252 252 254 256 259 262 266 270 272 273 273 276 280 283 285 287 290 294 298 302 307 313 317 322 325 326 328 331 336 340 343 346 347 346 345 345 344 342 340 340 340 341 340 339 338 331 324 324 321 317 314 311 309 306 306 307 307 306 304 304
226 226 226 227 227 226 227 228 229 229 230 231 232 234 235 236 237 238 238 238 238 239 241 243 244 247 249 251 251 252 253 255 257 261 265 268 271 272 272 274 277 280 282 283 285 289 293 297 302 308 313 318 322 323 325 328 332 336 339 343 345 345 344 343 343 340 338 337 336 337 337 337 338 335 329 327 324 320 317 313 310 308 307 308 307 306 305 306
225 226 226 226 226 226 226 227 228 229 229 230 232 233 234 235 236 237 237 238 238 238 240 241 244 246 248 250 250 252 253 255 257 260 263 266 268 271 272 273 275 278 280 281 282 285 289 294 299 305 310 314 318 319 322 325 328 331 334 339 342 343 342 341 340 338 336 335 332 332 334 333 336 336 331 329 327 323 320 318 315 313 311 308 307 305 305 305
224 225 225 225 226 226 226 227 228 228 229 230 231 232 234 235 236 237 237 237 237 238 239 241 244 246 248 249 250 252 253 254 257 259 261 263 266 269 271 273 274 276 278 280 281 283 287 291 297 302 307 311 313 315 317 320 323 326 330 334 337 340 341 339 337 336 335 333 329 328 328 329 333 334 330 329 329 324 322 321 320 319 317 312 308 306 304 303
224 224 224 225 225 225 226 226 227 228 229 229 230 232 233 234 235 236 237 237 238 238 240 241 243 246 247 248 249 250 251 253 256 258 259 261 264 267 270 272 273 274 277 279 280 282 285 289 294 299 303 306 309 310 313 316 319 321 325 329 333 336 338 337 334 333 333 332 328 325 324 325 329 330 328 327 327 324 323 323 322 321 320 317 313 308 304 302
223 223 224 224 224 224 225 226 227 228 229 229 230 231 232 234 235 236 236 237 238 239 239 240 242 244 245 245 247 248 250 252 255 257 259 261 263 266 268 270 272 272 275 277 279 280 282 286 290 294 298 301 304 306 309 312 315 317 320 324 328 331 334 334 331 329 329 329 327 324 321 321 324 325 325 326 325 323 322 322 321 320 320 319 316 311 306 302
223 223 223 223 224 224 225 226 226 228 229 229 230 231 232 233 234 235 236 237 238 238 238 239 241 242 243 244 246 248 250 252 254 256 259 260 262 264 266 268 270 270 273 275 277 278 280 282 286 290 293 297 299 302 305 308 311 313 316 319 323 327 329 331 329 326 325 325 324 321 319 319 320 322 323 324 322 320 320 319 318 317 318 318 317 314 310 306
222 222 222 222 223 223 225 225 226 227 228 229 230 231 232 233 234 235 236 237 238 238 238 239 240 241 243 244 246 248 251 253 254 256 258 260 261 263 264 266 267 268 271 273 276 277 278 280 283 286 290 293 295 298 302 305 307 310 312 315 319 323 325 327 326 324 321 320 319 318 316 316 317 319 321 320 318 317 316 316 315 315 315 315 315 314 312 309
220 221 221 222 222 223 224 225 225 227 228 229 230 231 232 233 234 234 235 236 237 238 238 239 240 241 242 244 246 249 251 253 254 255 256 258 260 262 263 264 265 267 270 272 274 277 277 278 280 283 287 290 292 295 298 301 304 306 309 311 314 318 321 322 323 322 319 316 315 315 314 313 314 317 319 317 315 314 313 312 312 312 313 313 313 313 311 310
220 220 220 221 221 222 224 224 225 226 228 229 230 231 232 232 233 234 235 236 237 237 238 238 239 240 242 244 246 248 251 252 254 255 256 258 260 261 262 263 264 266 268 269 272 275 276 276 278 281 284 287 289 292 295 298 301 303 306 308 311 314 316 318 320 320 317 314 312 313 311 310 313 315 315 314 313 312 310 310 310 311 311 311 311 310 310 309
218 219 219 220 221 222 223 224 225 226 227 228 230 231 232 232 233 233 234 235 236 237 237 238 239 240 242 244 246 248 251 252 254 255 257 258 259 260 261 262 263 263 265 268 271 274 275 275 276 279 282 284 286 290 293 295 298 301 304 306 308 310 312 315 316 316 315 312 310 309 307 308 313 314 312 312 311 310 309 309 309 309 310 310 309 308 308 307
217 218 218 219 220 221 223 223 224 225 226 228 229 231 231 232 233 233 234 235 236 236 237 238 239 240 242 244 246 248 250 253 254 255 256 257 258 260 261 261 261 262 265 268 271 273 274 275 276 277 280 283 285 288 291 293 296 299 302 304 305 307 309 311 313 313 313 311 307 306 303 306 313 314 311 310 310 309 308 307 307 308 309 308 307 306 306 306
216 217 217 218 219 221 222 223 224 225 226 228 229 230 231 232 232 233 233 234 235 236 237 238 239 240 242 244 246 248 250 252 254 255 256 257 258 259 259 259 260 263 265 268 270 272 273 274 275 276 278 281 284 287 289 292 295 298 301 302 303 305 307 309 310 310 310 309 306 304 301 304 311 312 309 309 309 307 305 306 307 308 308 307 305 304 304 304
215 216 217 218 219 220 221 223 224 225 226 227 229 231 231 232 232 233 233 234 235 236 237 238 239 240 242 243 245 247 249 251 253 254 255 257 258 259 259 259 260 262 265 266 268 270 272 273 274 275 277 280 283 285 288 291 294 296 298 300 301 303 304 306 307 307 307 307 306 304 301 302 308 309 307 307 307 306 306 308 308 307 306 305 304 304 304 303
215 216 217 218 219 220 221 222 223 225 226 227 229 231 231 232 233 233 233 234 235 236 237 238 239 241 242 243 245 246 248 250 252 253 254 256 258 259 259 259 260 261 262 264 266 268 270 271 272 273 275 278 281 283 286 289 292 295 296 298 299 301 302 304 304 305 305 305 305 305 301 301 304 306 305 306 306 307 308 308 307 306 306 306 305 304 304 303
215 215 217 217 218 219 221 222 223 225 226 227 229 230 231 231 232 233 233 234 236 236 237 238 239 240 242 243 244 246 248 249 251 253 254 256 257 258 259 259 259 260 261 263 265 267 268 270 271 272 274 276 279 282 285 288 291 293 294 296 298 299 300 301 302 302 303 303 304 303 299 299 302 303 304 306 307 308 308 308 306 307 308 308 306 305 304 303
214 215 216 217 218 219 221 222 223 224 226 227 229 230 230 231 232 232 233 234 236 236 237 238 239 240 242 243 245 246 247 249 250 252 253 255 256 257 258 258 258 259 261 263 265 266 268 270 271 272 273 275 278 281 284 286 289 291 293 295 296 297 298 299 299 300 301 302 302 299 299 300 300 300 303 305 306 307 308 307 307 308 310 309 307 305 304 302
214 215 216 217 218 219 221 222 223 224 226 227 229 230 231 231 232 233 233 234 235 236 237 238 239 241 242 244 245 246 247 248 250 251 252 253 255 256 257 257 258 259 261 263 265 267 268 269 271 272 273 275 277 280 282 285 287 289 292 293 295 296 296 297 298 299 300 301 299 297 299 300 298 299 303 305 306 307 307 307 307 309 309 308 306 305 303 301
214 215 216 218 218 219 221 222 223 224 226 227 229 231 231 232 233 233 233 234 235 237 238 238 240 241 243 245 246 247 248 248 249 250 251 252 254 255 256 257 257 259 260 262 264 266 267 268 269 272 273 275 277 278 281 283 286 288 290 291 292 293 295 296 298 299 300 300 299 298 300 300 298 300 303 305 306 307 307 307 308 309 309 309 307 305 303 302
215 215 216 218 218 219 221 222 223 225 226 227 229 231 231 232 233 233 234 234 236 237 239 240 241 242 243 245 246 247 247 248 249 249 250 252 253 254 255 256 257 258 260 262 263 264 265 266 268 271 274 275 276 278 280 282 285 287 288 289 290 291 292 294 296 297 298 299 298 298 300 300 299 300 303 305 306 306 306 307 307 309 310 309 308 306 304 303
215 215 217 218 219 219 221 222 223 225 226 228 229 230 231 232 233 233 234 235 236 238 239 240 241 242 243 244 245 246 247 247 248 249 250 251 252 253 254 256 257 258 259 261 262 263 264 266 268 270 273 275 276 278 280 282 284 286 287 287 288 289 290 292 294 294 294 295 295 296 298 298 297 300 302 303 304 306 306 306 307 308 309 309 307 306 304 303
216 216 217 218 219 219 221 222 224 225 227 228 229 230 232 233 234 234 234 235 236 238 240 241 241 242 243 244 245 246 247 248 248 249 249 250 251 252 253 255 256 257 258 259 261 262 264 266 268 270 272 275 277 278 280 282 284 285 286 286 287 289 290 292 292 292 292 293 294 294 295 295 296 299 301 302 304 305 305 306 307 308 308 308 306 305 304 303
217 217 217 219 220 220 221 222 224 225 227 228 229 231 232 233 234 234 234 235 236 237 239 241 242 242 243 245 246 246 247 248 248 249 250 250 251 252 254 255 256 257 259 260 261 263 265 267 269 270 272 274 277 279 280 282 284 285 285 285 286 288 290 291 291 291 292 294 294 294 294 294 296 298 300 302 303 304 305 305 306 306 307 306 305 304 304 303
218 218 218 219 220 221 221 222 224 225 227 229 230 231 232 233 234 235 235 235 236 237 239 241 243 243 244 245 246 247 248 249 250 250 251 252 253 253 255 256 257 258 260 261 263 264 266 267 268 270 271 273 276 278 280 283 285 284 283 284 287 288 289 289 290 291 293 293 293 293 294 295 296 298 300 301 303 304 304 304 304 305 306 306 305 305 304 303